Orange, MA

10:56 PM EST on December 13, 2019 (GMT -0500)
Orange Municipal

Weather History for KORE - October, 2019

Change the Weather History Date:

Monday, October 28, 2019

  Actual Average Record
Temperature  
Mean Temperature 50 °F -  
Max Temperature 55 °F 52 °F 71 °F (2010)
Min Temperature 46 °F 31 °F 23 °F (1999)
Degree Days  
Heating Degree Days 14    
Moisture  
Dew Point 45 °F    
Average Humidity 83    
Maximum Humidity 90    
Minimum Humidity 74    
Precipitation  
Precipitation 0.00 in - - ()
Sea Level Pressure  
Sea Level Pressure 30.19 in    
Wind  
Wind Speed 2 mph ()    
Max Wind Speed 7 mph    
Max Gust Speed -    
Visibility 9.9 miles    
Events      
Averages and records for this station are not official NWS values.
T = Trace of Precipitation, MM = Missing Value Source: Averaged Metar Reports

Daily Weather History Graph

Daily Weather History Graph

Search for Another Location

Airport or City:

Astronomy

Oct. 28, 2019 Rise Set
Actual Time 7:17 AM EDT 5:47 PM EDT
Civil Twilight 6:48 AM EDT 6:16 PM EDT
Nautical Twilight 6:15 AM EDT 6:49 PM EDT
Astronomical Twilight 5:42 AM EDT 7:22 PM EDT
Moon 7:35 AM EDT (10/28) 6:31 PM EDT (10/28)
Length of Visible Light 11h 28m
Length of Day
10h 30m
New Moon, 0% of the Moon is Illuminated
Oct 28
New Moon
Nov 4
First Quarter
Nov 12
Full
Nov 19
Last Quarter
Nov 26
New

Hourly Weather History & Observations

Time (EDT) Temp. Dew Point Humidity Pressure Visibility Wind Dir Wind Speed Gust Speed Precip Events Conditions
12:52 AM 46.9 °F 44.1 °F 90% 29.94 in 10.0 mi NNW 3.5 mph - N/A   Overcast
1:52 AM 46.9 °F 44.1 °F 90% 29.97 in 10.0 mi West 3.5 mph - N/A   Overcast
2:34 AM 46.9 °F 44.1 °F 90% 29.96 in 10.0 mi Calm Calm - N/A   Overcast
2:52 AM 46.9 °F 44.1 °F 90% 29.99 in 10.0 mi NW 3.5 mph - N/A   Overcast
3:00 AM 46.9 °F 44.1 °F 90% 29.98 in 10.0 mi NNW 3.5 mph - N/A   Overcast
3:52 AM 46.9 °F 44.1 °F 90% 30.01 in 10.0 mi Calm Calm - N/A   Overcast
4:52 AM 46.9 °F 44.1 °F 90% 30.04 in 10.0 mi NW 3.5 mph - N/A   Overcast
5:52 AM 46.9 °F 44.1 °F 90% 30.07 in 10.0 mi Calm Calm - N/A   Overcast
6:52 AM 48.0 °F 44.1 °F 86% 30.10 in 10.0 mi Calm Calm - N/A   Overcast
7:52 AM 48.0 °F 45.0 °F 89% 30.14 in 10.0 mi Calm Calm - N/A   Overcast
8:47 AM 48.2 °F 44.6 °F 87% 30.17 in 9.0 mi WNW 3.5 mph - N/A   Overcast
8:52 AM 48.9 °F 45.0 °F 86% 30.19 in 9.0 mi WNW 3.5 mph - N/A   Overcast
9:52 AM 50.0 °F 45.0 °F 83% 30.21 in 10.0 mi Calm Calm - N/A   Overcast
10:52 AM 52.0 °F 46.0 °F 80% 30.22 in 10.0 mi Calm Calm - N/A   Overcast
11:08 AM 52.0 °F 46.0 °F 80% 30.22 in 10.0 mi Calm Calm - N/A   Overcast
11:52 AM 53.1 °F 46.9 °F 80% 30.23 in 10.0 mi Calm Calm - N/A   Overcast
12:42 PM 55.0 °F 46.9 °F 74% 30.21 in 10.0 mi Variable 3.5 mph - N/A   Overcast
12:52 PM 55.0 °F 46.9 °F 74% 30.23 in 10.0 mi East 5.8 mph - N/A   Overcast
1:52 PM 55.0 °F 46.9 °F 74% 30.23 in 10.0 mi East 4.6 mph - N/A   Overcast
2:52 PM 54.0 °F 46.9 °F 77% 30.25 in 10.0 mi ESE 5.8 mph - N/A   Overcast
3:52 PM 54.0 °F 46.0 °F 75% 30.25 in 10.0 mi East 4.6 mph - N/A   Overcast
4:52 PM 54.0 °F 46.0 °F 75% 30.27 in 10.0 mi SE 5.8 mph - N/A   Overcast
5:52 PM 53.1 °F 46.0 °F 77% 30.29 in 10.0 mi Calm Calm - N/A   Overcast
6:52 PM 52.0 °F 46.0 °F 80% 30.32 in 10.0 mi SE 6.9 mph - N/A   Overcast
7:44 PM 51.1 °F 45.0 °F 80% 30.32 in 10.0 mi ESE 4.6 mph - N/A   Overcast
7:52 PM 51.1 °F 45.0 °F 80% 30.33 in 10.0 mi ESE 4.6 mph - N/A   Overcast
8:03 PM 51.1 °F 45.0 °F 80% 30.31 in 10.0 mi East 3.5 mph - N/A   Overcast
8:52 PM 51.1 °F 45.0 °F 80% 30.32 in 10.0 mi Calm Calm - N/A   Overcast
9:52 PM 51.1 °F 46.0 °F 83% 30.33 in 10.0 mi Calm Calm - N/A   Overcast
10:24 PM 51.1 °F 46.0 °F 83% 30.31 in 10.0 mi Calm Calm - N/A   Overcast
10:39 PM 50.0 °F 46.0 °F 86% 30.31 in 10.0 mi Calm Calm - N/A   Overcast
10:52 PM 51.1 °F 46.9 °F 86% 30.32 in 10.0 mi Calm Calm - N/A   Overcast
11:52 PM 51.1 °F 46.0 °F 83% 30.34 in 10.0 mi Calm Calm - N/A   Overcast